Regional Weather Roundup
Issued by NWS

Home | Current Version | Previous Version | Graphics & Text | Print | Product List | Glossary On
Versions: 1 2 3 4 5 6 7 8 9 10 11 12 13 14 15 16 17 18 19 20 21 22 23 24 25 26 27 28 29 30 31 32 33 34 35 36 37 38 39 40 41 42 43 44 45 46 47 48 49 50
000
ASUS43 KFSD 121510
RWRSD

WEATHER ROUNDUP FOR SOUTH DAKOTA
NATIONAL WEATHER SERVICE SIOUX FALLS SD
900 AM CST TUE DEC 12 2017

NOTE: "FAIR" INDICATES FEW OR NO CLOUDS BELOW 12,000 FEET WITH NO
SIGNIFICANT WEATHER AND/OR OBSTRUCTIONS TO VISIBILITY.


SDZ001>005-009-010-012>017-121600-
NORTHWEST AND NORTH CENTRAL SOUTH DAKOTA

CITY           SKY/WX    TMP DP  RH WIND       PRES   REMARKS
BUFFALO          N/A     29  19  66 W10       30.03F WCI  20
FAITH            N/A     24  20  84 SW8       30.10F WCI  15
MOBRIDGE       CLOUDY    26  22  84 S3        30.09F
$$

SDZ012>016-024>037-041>051-057-063-072>074-121600-
SOUTHWEST AND SOUTH CENTRAL SOUTH DAKOTA

CITY           SKY/WX    TMP DP  RH WIND       PRES   REMARKS
RAPID CTY ARPT CLOUDY    28   9  44 CALM      30.15F
PIERRE         CLOUDY    26  23  88 W8        30.16F WCI  18
CUSTER         CLOUDY    35  12  38 VRB5      30.17F
ELLSWORTH AFB  CLOUDY    32   7  35 CALM      30.13F
PHILIP         CLOUDY    24  21  88 W12       30.17F WCI  13
PINE RIDGE     CLOUDY    29  21  72 SW5       30.21F WCI  24
SPEARFISH      FAIR      45  16  31 W14       30.16S
WINNER         FAIR      30  24  78 SW6       30.20F WCI  24
$$

SDZ004>011-016>023-039-040-121600-
NORTHEAST SOUTH DAKOTA

CITY           SKY/WX    TMP DP  RH WIND       PRES   REMARKS
ABERDEEN       CLOUDY    22  21  96 S7        30.12F WCI  13
WATERTOWN      CLOUDY    22  21  96 SW9       30.11F WCI  12
BROOKINGS      CLOUDY    22  18  85 SW8       30.15F WCI  12
SISSETON         N/A     28  24  85 SW12      30.09F WCI  18
$$

SDZ017-020-022-023-036>040-048>070-121600-
SOUTHEAST SOUTH DAKOTA

CITY           SKY/WX    TMP DP  RH WIND       PRES   REMARKS
SIOUX FALLS    CLOUDY    21  17  84 SW5       30.21F WCI  15
HURON          CLOUDY    25  23  92 S10       30.16F WCI  15
CHAMBERLAIN    CLOUDY    28  27  96 W3        30.19F
MITCHELL       CLOUDY    26  23  88 S7        30.21F WCI  18
YANKTON        CLOUDY    22  18  85 S3        30.24F
$$

ABBREVIATIONS USED IN REMARKS
   TC - TEMPERATURE IN CELSIUS
  WCI - WIND CHILL INDEX
   HX - HEAT INDEX
  VSB - VISIBILITY




USA.gov is the U.S. government's official web portal to all federal, state and local government web resources and services.